This is the latest recevied weather packets stored in our database for station/object W0WC. If no packets are shown the sender has not sent any weather packets the latest 1 day(s).
| Time | Temp. | Humidity | Pressure | Rain* | Wind** | Luminosity | Snow |
|---|---|---|---|---|---|---|---|
| 1777993997 | 11.67° C | 88% | 1009.2 hPa | 0 mm | 3.13 m/s, 42° | 71 W/m² | - |
| 1777993694 | 11.67° C | 88% | 1009.2 hPa | 0 mm | 4.47 m/s, 29° | 70 W/m² | - |
| 1777993391 | 11.67° C | 88% | 1009 hPa | 0 mm | 4.92 m/s, 8° | 61 W/m² | - |
| 1777993091 | 11.67° C | 88% | 1009.1 hPa | 0 mm | 4.92 m/s, 61° | 58 W/m² | - |
| 1777992790 | 12.22° C | 89% | 1009.1 hPa | 0 mm | 3.13 m/s, 13° | 73 W/m² | - |
| 1777992487 | 12.22° C | 89% | 1008.7 hPa | 0 mm | 1.79 m/s, 37° | 64 W/m² | - |
| 1777992185 | 12.22° C | 88% | 1008.4 hPa | 0 mm | 1.79 m/s, 2° | 74 W/m² | - |
| 1777991881 | 12.22° C | 88% | 1008.2 hPa | 0 mm | 2.68 m/s, 14° | 90 W/m² | - |
| 1777991579 | 12.22° C | 88% | 1008.1 hPa | 0 mm | 1.79 m/s, 26° | 58 W/m² | - |
| 1777991276 | 12.78° C | 88% | 1008 hPa | 0 mm | 1.79 m/s, 2° | 53 W/m² | - |
| 1777990973 | 12.78° C | 88% | 1007.7 hPa | 0 mm | 0.89 m/s, 12° | 71 W/m² | - |
| 1777990671 | 12.78° C | 88% | 1007.6 hPa | 0 mm | 1.79 m/s, 16° | 84 W/m² | - |
| 1777990368 | 12.78° C | 89% | 1007.5 hPa | 0 mm | 1.79 m/s, 29° | 80 W/m² | - |
| 1777990064 | 12.78° C | 89% | 1007 hPa | 0 mm | 1.34 m/s, 14° | 75 W/m² | - |
| 1777989761 | 12.22° C | 90% | 1006.9 hPa | 0 mm | 2.24 m/s, 52° | 116 W/m² | - |
| 1777989457 | 12.22° C | 90% | 1006.8 hPa | 0 mm | 1.34 m/s, 35° | 106 W/m² | - |
| 1777989154 | 12.22° C | 90% | 1007.5 hPa | 0 mm | 0.89 m/s, 13° | 81 W/m² | - |
| 1777988850 | 12.22° C | 90% | 1007.5 hPa | 0 mm | 1.79 m/s, 17° | 77 W/m² | - |
| 1777988547 | 12.22° C | 90% | 1007.5 hPa | 0 mm | 1.79 m/s, 27° | 56 W/m² | - |
| 1777988244 | 12.78° C | 90% | 1007.6 hPa | 0 mm | 3.13 m/s, 6° | 29 W/m² | - |
| 1777987941 | 12.78° C | 89% | 1007.9 hPa | 0 mm | 1.79 m/s, 11° | 33 W/m² | - |
| 1777987636 | 12.78° C | 89% | 1008.1 hPa | 0 mm | 1.79 m/s, 21° | 34 W/m² | - |
| 1777987334 | 12.78° C | 89% | 1008 hPa | 0 mm | 4.02 m/s, 29° | 20 W/m² | - |
| 1777987031 | 12.78° C | 89% | 1007.9 hPa | 0 mm | 1.79 m/s, 356° | 14 W/m² | - |
| 1777986729 | 12.78° C | 89% | 1008 hPa | 0 mm | 1.34 m/s, 58° | 20 W/m² | - |
* Rain latest hour (hover to see other rain measurements)
** Current wind speed in m/s (hover to see current wind gust speed)